Date String (YYYY-MM-DD hh:mm:ss) UTC,Instrument flags,Ambient pressure (hPa),Sample flow (lpm),Bypass flow (lpm),Sample temperature (°C),Ambient temperature (°C),ASC tube jacket temperature (°C),LED temperature (°C),Box temperature (°C),Sample RH (%),Span deviation,Mass concentration (μg/m³),Mass concentration (μg/m³),Mass concentration (μg/m³)
DateTimeUTC,F1_M11,P_M11,Q1_M11,Q2_M11,T1_M11,T2_M11,T3_M11,T4_M11,T5_M11,U1_M11,ZSPAN_M11,X0_M11,X2_M11,X1_M11
2023-01-29 23:00:00,,0824.6,4.99,0.00,22.6,22.8,00.0,31.3,24.6,04.6,0002.6,0010.31,0006.34,0005.56
2023-01-29 23:01:00,,0824.7,4.99,0.00,22.6,22.2,00.0,31.4,24.5,04.6,0003.1,0010.35,0006.35,0005.56
2023-01-29 23:02:00,,0824.9,4.99,0.00,22.6,21.7,00.0,31.4,24.3,04.6,0003.1,0010.39,0006.39,0005.59
2023-01-29 23:03:00,,0824.7,5.02,0.00,22.5,21.3,00.0,31.4,24.1,04.6,0003.1,0010.40,0006.40,0005.59
2023-01-29 23:04:00,,0824.6,5.00,0.00,22.5,20.9,00.0,31.4,24.0,04.6,0003.0,0010.05,0006.37,0005.58
2023-01-29 23:05:00,,0824.6,5.00,0.00,22.4,20.6,00.0,31.4,23.9,04.6,0003.0,0009.84,0006.35,0005.57
2023-01-29 23:06:00,,0824.6,5.01,0.00,22.4,20.8,00.0,31.3,23.9,04.6,0002.6,0009.94,0006.33,0005.56
2023-01-29 23:07:00,,0824.7,5.01,0.00,22.5,21.8,00.0,31.3,24.2,04.6,0002.4,0010.00,0006.30,0005.55
2023-01-29 23:08:00,,0824.8,4.98,0.00,22.6,22.7,00.0,31.3,24.5,04.6,0002.4,0010.02,0006.31,0005.54
2023-01-29 23:09:00,,0824.8,4.98,0.00,22.7,23.1,00.0,31.3,24.7,04.5,0002.3,0010.06,0006.31,0005.52
2023-01-29 23:10:00,,0824.8,5.01,0.00,22.7,22.5,00.0,31.4,24.6,04.5,0002.2,0010.03,0006.29,0005.51
2023-01-29 23:11:00,,0824.8,4.99,0.00,22.6,21.9,00.0,31.4,24.4,04.5,0001.7,0010.17,0006.34,0005.50
2023-01-29 23:12:00,,0824.8,5.02,0.00,22.6,21.4,00.0,31.4,24.2,04.5,0001.3,0010.07,0006.29,0005.48
2023-01-29 23:13:00,,0824.9,4.98,0.00,22.5,21.0,00.0,31.4,24.0,04.5,0001.5,0010.03,0006.26,0005.46
2023-01-29 23:14:00,,0824.9,5.02,0.00,22.4,20.7,00.0,31.4,24.0,04.5,0001.8,0009.99,0006.20,0005.43
2023-01-29 23:15:00,,0824.9,5.02,0.00,22.4,20.6,00.0,31.4,23.9,04.5,0002.1,0010.02,0006.21,0005.41
2023-01-29 23:16:00,,0824.9,5.00,0.00,22.4,21.3,00.0,31.3,24.1,04.5,0002.4,0009.90,0006.18,0005.40
2023-01-29 23:17:00,,0824.9,5.00,0.00,22.5,22.3,00.0,31.3,24.4,04.5,0002.6,0009.71,0006.17,0005.39
2023-01-29 23:18:00,,0824.9,4.99,0.00,22.6,22.8,00.0,31.3,24.6,04.5,0003.0,0009.60,0006.18,0005.40
2023-01-29 23:19:00,,0824.9,5.00,0.00,22.6,22.3,00.0,31.4,24.5,04.5,0003.2,0009.49,0006.14,0005.39
2023-01-29 23:20:00,,0824.9,5.02,0.00,22.6,21.7,00.0,31.4,24.3,04.5,0003.3,0009.48,0006.15,0005.40
2023-01-29 23:21:00,,0824.9,4.99,0.00,22.5,21.2,00.0,31.4,24.1,04.5,0003.7,0009.69,0006.15,0005.39
2023-01-29 23:22:00,,0825.0,5.02,0.00,22.4,20.8,00.0,31.4,24.0,04.5,0003.7,0009.66,0006.12,0005.39
2023-01-29 23:23:00,,0824.9,5.00,0.00,22.4,20.5,00.0,31.4,23.9,04.5,0003.8,0009.75,0006.17,0005.42
2023-01-29 23:24:00,,0825.0,5.02,0.00,22.3,20.7,00.0,31.3,23.9,04.5,0003.9,0009.77,0006.19,0005.43
2023-01-29 23:25:00,,0825.1,5.00,0.00,22.4,21.6,00.0,31.3,24.1,04.5,0003.7,0009.71,0006.21,0005.46
2023-01-29 23:26:00,,0825.1,4.99,0.00,22.5,22.5,00.0,31.3,24.4,04.5,0003.7,0009.78,0006.24,0005.48
2023-01-29 23:27:00,,0825.0,4.99,0.00,22.6,23.0,00.0,31.3,24.6,04.4,0003.7,0009.79,0006.26,0005.50
2023-01-29 23:28:00,,0825.0,4.98,0.00,22.7,22.5,00.0,31.4,24.5,04.4,0004.0,0009.78,0006.23,0005.49
2023-01-29 23:29:00,,0825.1,5.01,0.00,22.6,21.9,00.0,31.4,24.3,04.4,0003.8,0009.78,0006.20,0005.47
2023-01-29 23:30:00,,0825.1,5.00,0.00,22.6,21.4,00.0,31.4,24.2,04.4,0003.7,0009.82,0006.20,0005.47
2023-01-29 23:31:00,,0825.1,5.01,0.00,22.5,21.0,00.0,31.4,24.1,04.4,0003.9,0009.87,0006.18,0005.48
2023-01-29 23:32:00,,0825.0,5.01,0.00,22.4,20.6,00.0,31.4,24.0,04.4,0003.4,0009.86,0006.17,0005.47
2023-01-29 23:33:00,,0825.0,5.00,0.00,22.4,20.4,00.0,31.3,23.9,04.4,0003.3,0010.16,0006.16,0005.47
2023-01-29 23:34:00,,0825.1,5.01,0.00,22.4,21.1,00.0,31.3,24.1,04.4,0003.1,0010.07,0006.11,0005.43
2023-01-29 23:35:00,,0825.2,4.99,0.00,22.5,22.1,00.0,31.3,24.3,04.4,0003.0,0010.14,0006.11,0005.42
2023-01-29 23:36:00,,0825.2,5.00,0.00,22.6,22.9,00.0,31.3,24.6,04.4,0003.1,0010.21,0006.12,0005.41
2023-01-29 23:37:00,,0825.0,4.99,0.00,22.7,23.0,00.0,31.3,24.7,04.4,0003.2,0010.08,0006.06,0005.38
2023-01-29 23:38:00,,0824.9,5.00,0.00,22.7,22.4,00.0,31.4,24.5,04.4,0002.9,0010.00,0006.02,0005.37
2023-01-29 23:39:00,,0824.9,5.01,0.00,22.7,21.8,00.0,31.4,24.3,04.4,0002.2,0009.96,0006.03,0005.38
2023-01-29 23:40:00,,0825.2,5.01,0.00,22.6,21.4,00.0,31.4,24.2,04.4,0002.7,0009.82,0006.00,0005.37
2023-01-29 23:41:00,,0825.2,5.01,0.00,22.5,21.0,00.0,31.4,24.1,04.4,0002.7,0009.76,0005.97,0005.36
2023-01-29 23:42:00,,0825.3,4.99,0.00,22.5,20.8,00.0,31.4,24.0,04.5,0002.5,0009.71,0005.98,0005.35
2023-01-29 23:43:00,,0825.2,5.00,0.00,22.4,20.6,00.0,31.4,23.9,04.4,0002.6,0009.64,0005.97,0005.35
2023-01-29 23:44:00,,0825.1,5.00,0.00,22.4,21.1,00.0,31.3,24.1,04.4,0002.4,0008.99,0005.94,0005.34
2023-01-29 23:45:00,,0825.1,4.99,0.00,22.5,22.1,00.0,31.3,24.4,04.4,0002.3,0009.07,0005.98,0005.36
2023-01-29 23:46:00,,0825.2,5.01,0.00,22.6,22.9,00.0,31.3,24.6,04.4,0002.0,0009.05,0005.98,0005.37
2023-01-29 23:47:00,,0825.2,4.99,0.00,22.7,23.2,00.0,31.4,24.7,04.4,0001.6,0008.99,0005.98,0005.39
2023-01-29 23:48:00,,0825.2,5.00,0.00,22.7,22.6,00.0,31.4,24.6,04.4,0000.9,0009.05,0006.00,0005.41
2023-01-29 23:49:00,,0825.2,5.00,0.00,22.7,22.0,00.0,31.4,24.5,04.4,0000.5,0009.25,0006.05,0005.43
2023-01-29 23:50:00,,0825.2,4.97,0.00,22.7,21.6,00.0,31.5,24.3,04.4,0000.5,0009.24,0006.06,0005.44
2023-01-29 23:51:00,,0825.2,5.00,0.00,22.6,21.2,00.0,31.5,24.2,04.4,-000.2,0009.50,0006.07,0005.44
2023-01-29 23:52:00,,0825.2,5.03,0.00,22.6,20.9,00.0,31.4,24.1,04.4,-000.1,0010.15,0006.07,0005.45
2023-01-29 23:53:00,,0825.2,4.99,0.00,22.5,20.7,00.0,31.4,24.0,04.4,-000.2,0010.15,0006.07,0005.45
2023-01-29 23:54:00,,0825.2,5.01,0.00,22.4,20.6,00.0,31.4,23.9,04.4,0000.3,0010.26,0006.13,0005.47
2023-01-29 23:55:00,,0825.3,5.01,0.00,22.5,21.3,00.0,31.4,24.1,04.4,0001.0,0010.37,0006.19,0005.52
2023-01-29 23:56:00,,0825.3,4.99,0.00,22.6,22.2,00.0,31.3,24.4,04.4,0001.4,0010.37,0006.20,0005.53
2023-01-29 23:57:00,,0825.3,4.99,0.00,22.7,22.9,00.0,31.4,24.6,04.4,0001.5,0010.34,0006.20,0005.53
2023-01-29 23:58:00,,0825.2,4.99,0.00,22.7,22.7,00.0,31.4,24.6,04.4,0001.7,0010.50,0006.26,0005.54
2023-01-29 23:59:00,,0825.2,5.00,0.00,22.7,22.1,00.0,31.4,24.5,04.4,0001.9,0010.45,0006.25,0005.55
